Change the Weather History Date:

Wednesday, December 18, 2013

  Actual Average (KISN) Record (KISN)
Temperature  
Mean Temperature 18 °F 13 °F  
Max Temperature 35 °F 23 °F 56 °F (1979)
Min Temperature 1 °F 2 °F -36 °F (1929)
Degree Days  
Heating Degree Days 47 52  
Month to date heating degree days 890  
Since 1 July heating degree days 3052  
Cooling Degree Days 0 0  
Month to date cooling degree days 0  
Year to date cooling degree days 456  
Moisture  
Dew Point 16 °F    
Average Humidity 79    
Maximum Humidity 87    
Minimum Humidity 65    
Precipitation  
Precipitation 0.00 in 0.03 in 0.40 in (1904)
Month to date precipitation 0.35  
Year to date precipitation 14.10  
Sea Level Pressure  
Sea Level Pressure 29.72 in    
Wind  
Wind Speed 11 mph (WNW)    
Max Wind Speed 24 mph    
Max Gust Speed 32 mph    
Visibility 10 miles    
Events Snow    
T = Trace of Precipitation, MM = Missing Value Source: NWS Daily Summary

Daily Weather History Graph

Daily Weather History Graph

Search for Another Location

Airport or City:

Trip Planner

Search our weather history database for the weather conditions in past years. The results will help you decide how hot, cold, wet, or windy it might be!

Date:

Astronomy

Dec. 18, 2013 Rise Set
Actual Time 8:37 AM CST 5:02 PM CST
Civil Twilight 8:01 AM CST 5:38 PM CST
Nautical Twilight 7:21 AM CST 6:17 PM CST
Astronomical Twilight 6:44 AM CST 6:55 PM CST
Moon 6:42 PM CST (12/18) 9:12 AM CST (12/18)
Length of Visible Light 9h 36m
Length of Day
8h 24m
Full, 98% of the Moon is Illuminated
Dec 18
Full
Dec 25
Last Quarter
Jan 1
New
Jan 7
First Quarter
Jan 15
Full

Hourly Weather History & Observations

Time (CST) Temp. Windchill Dew Point Humidity Pressure Visibility Wind Dir Wind Speed Gust Speed Precip Events Conditions
12:15 AM 26.6 °F 21.2 °F 23.0 °F 86% 29.61 in 10.0 mi North 4.6 mph - N/A   Clear
12:35 AM 26.6 °F 15.7 °F 23.0 °F 86% 29.60 in 10.0 mi SW 12.7 mph - N/A   Clear
12:55 AM 26.6 °F 16.2 °F 21.2 °F 80% 29.59 in 10.0 mi SW 11.5 mph - N/A   Clear
1:15 AM 28.4 °F 18.0 °F 23.0 °F 80% 29.59 in 10.0 mi SW 12.7 mph - N/A   Clear
1:35 AM 26.6 °F 16.8 °F 21.2 °F 80% 29.59 in 10.0 mi SW 10.4 mph - N/A   Clear
1:55 AM 26.6 °F 15.2 °F 21.2 °F 80% 29.59 in 10.0 mi SW 13.8 mph - N/A   Clear
2:15 AM 26.6 °F 16.8 °F 21.2 °F 80% 29.59 in 10.0 mi SW 10.4 mph - N/A   Clear
2:35 AM 24.8 °F 12.9 °F 21.2 °F 86% 29.58 in 10.0 mi SW 13.8 mph - N/A   Clear
2:55 AM 24.8 °F 14.6 °F 21.2 °F 86% 29.59 in 10.0 mi SW 10.4 mph - N/A   Clear
3:15 AM 26.6 °F 16.8 °F 21.2 °F 80% 29.58 in 10.0 mi SW 10.4 mph - N/A   Clear
3:35 AM 24.8 °F 15.3 °F 21.2 °F 86% 29.58 in 10.0 mi SW 9.2 mph - N/A   Clear
3:55 AM 26.6 °F 18.2 °F 21.2 °F 80% 29.58 in 10.0 mi SW 8.1 mph - N/A   Clear
4:15 AM 24.8 °F 19.1 °F 19.4 °F 80% 29.57 in 10.0 mi SW 4.6 mph - N/A   Clear
4:35 AM 24.8 °F 17.9 °F 19.4 °F 80% 29.57 in 10.0 mi SW 5.8 mph - N/A   Clear
4:55 AM 24.8 °F 16.9 °F 19.4 °F 80% 29.57 in 10.0 mi WSW 6.9 mph - N/A   Clear
5:15 AM 26.6 °F 16.8 °F 21.2 °F 80% 29.56 in 10.0 mi SW 10.4 mph - N/A   Clear
5:35 AM 26.6 °F 16.8 °F 21.2 °F 80% 29.57 in 10.0 mi WSW 10.4 mph - N/A   Clear
5:55 AM 26.6 °F 16.8 °F 21.2 °F 80% 29.56 in 10.0 mi SW 10.4 mph - N/A   Clear
6:15 AM 26.6 °F 19.1 °F 19.4 °F 74% 29.56 in 10.0 mi SW 6.9 mph - N/A   Clear
6:35 AM 26.6 °F 20.0 °F 21.2 °F 80% 29.55 in 10.0 mi SW 5.8 mph - N/A   Clear
6:55 AM 28.4 °F 22.2 °F 21.2 °F 74% 29.56 in 10.0 mi SW 5.8 mph - N/A   Clear
7:15 AM 28.4 °F 24.6 °F 21.2 °F 74% 29.56 in 10.0 mi SW 3.5 mph - N/A   Clear
7:35 AM 26.6 °F 16.8 °F 19.4 °F 74% 29.56 in 10.0 mi SW 10.4 mph - N/A   Clear
7:55 AM 26.6 °F 15.7 °F 21.2 °F 80% 29.56 in 10.0 mi WSW 12.7 mph - N/A   Clear
8:15 AM 28.4 °F 20.4 °F 21.2 °F 74% 29.56 in 10.0 mi SW 8.1 mph - N/A   Clear
8:35 AM 28.4 °F 19.7 °F 23.0 °F 80% 29.57 in 10.0 mi SW 9.2 mph - N/A   Clear
8:55 AM 26.6 °F 17.5 °F 21.2 °F 80% 29.57 in 10.0 mi WSW 9.2 mph - N/A   Clear
9:15 AM 26.6 °F 20.0 °F 21.2 °F 80% 29.57 in 10.0 mi West 5.8 mph - N/A   Clear
9:35 AM 28.4 °F 18.5 °F 21.2 °F 74% 29.58 in 10.0 mi SW 11.5 mph - N/A   Clear
9:55 AM 28.4 °F 19.1 °F 21.2 °F 74% 29.59 in 10.0 mi SW 10.4 mph - N/A   Clear
10:15 AM 32.0 °F 23.0 °F 23.0 °F 69% 29.59 in 10.0 mi SW 11.5 mph - N/A   Clear
10:35 AM 32.0 °F 23.6 °F 23.0 °F 69% 29.60 in 10.0 mi WSW 10.4 mph - N/A   Clear
10:55 AM 32.0 °F 22.5 °F 23.0 °F 69% 29.61 in 10.0 mi West 12.7 mph 17.3 mph N/A   Clear
11:15 AM 35.6 °F 26.6 °F 24.8 °F 65% 29.62 in 10.0 mi West 13.8 mph 20.7 mph N/A   Clear
11:35 AM 35.6 °F 25.9 °F 24.8 °F 65% 29.62 in 10.0 mi WNW 16.1 mph 24.2 mph N/A   Clear
11:55 AM 35.6 °F 26.6 °F 24.8 °F 65% 29.64 in 10.0 mi WNW 13.8 mph 19.6 mph N/A   Clear
12:15 PM 35.6 °F 27.1 °F 24.8 °F 65% 29.66 in 10.0 mi NW 12.7 mph 18.4 mph N/A   Clear
12:35 PM 33.8 °F 23.9 °F 26.6 °F 75% 29.67 in 10.0 mi NW 15.0 mph 19.6 mph N/A   Clear
12:55 PM 33.8 °F 22.5 °F 26.6 °F 75% 29.67 in 10.0 mi NW 19.6 mph 23.0 mph N/A   Clear
1:15 PM 32.0 °F 20.8 °F 26.6 °F 80% 29.68 in 10.0 mi NW 17.3 mph 25.3 mph N/A   Scattered Clouds
1:35 PM 32.0 °F 20.8 °F 28.4 °F 87% 29.69 in 10.0 mi NW 17.3 mph 21.9 mph N/A   Overcast
1:55 PM 32.0 °F 21.2 °F 28.4 °F 87% 29.70 in 10.0 mi NW 16.1 mph 21.9 mph N/A   Overcast
2:15 PM 32.0 °F 20.5 °F 28.4 °F 87% 29.70 in 10.0 mi NNW 18.4 mph 24.2 mph N/A   Overcast
2:35 PM 32.0 °F 19.5 °F 26.6 °F 80% 29.72 in 10.0 mi NNW 21.9 mph 31.1 mph N/A   Overcast
2:55 PM 28.4 °F 15.1 °F 23.0 °F 80% 29.74 in 10.0 mi NNW 20.7 mph 32.2 mph N/A   Overcast
3:15 PM 26.6 °F 12.0 °F 21.2 °F 80% 29.75 in 10.0 mi NNW 23.0 mph 27.6 mph N/A   Overcast
3:35 PM 24.8 °F 9.3 °F 19.4 °F 80% 29.77 in 10.0 mi NNW 24.2 mph 29.9 mph N/A   Overcast
3:55 PM 23.0 °F 10.6 °F 17.6 °F 80% 29.78 in 10.0 mi North 13.8 mph - N/A   Overcast
4:15 PM 21.2 °F 8.3 °F 15.8 °F 80% 29.80 in 10.0 mi NNE 13.8 mph 26.5 mph N/A   Overcast
4:35 PM 19.4 °F 2.1 °F 15.8 °F 86% 29.81 in 10.0 mi North 24.2 mph - N/A   Overcast
4:55 PM 15.8 °F -1.5 °F 12.2 °F 86% 29.82 in 10.0 mi North 20.7 mph 28.8 mph N/A   Mostly Cloudy
5:15 PM 15.8 °F 1.4 °F 10.4 °F 79% 29.84 in 10.0 mi North 13.8 mph 19.6 mph N/A Snow Light Snow
5:35 PM 14.0 °F 2.0 °F 10.4 °F 86% 29.86 in 10.0 mi NNW 9.2 mph - N/A Snow Light Snow
5:55 PM 14.0 °F 2.9 °F 10.4 °F 86% 29.88 in 10.0 mi North 8.1 mph - N/A Snow Light Snow
6:15 PM 14.0 °F 3.9 °F 10.4 °F 86% 29.89 in 10.0 mi North 6.9 mph - N/A   Overcast
6:35 PM 14.0 °F 2.0 °F 8.6 °F 79% 29.89 in 10.0 mi North 9.2 mph - N/A   Overcast
6:55 PM 10.4 °F -6.0 °F 6.8 °F 85% 29.90 in 10.0 mi North 15.0 mph - N/A   Overcast
7:15 PM 8.6 °F -7.7 °F 3.2 °F 79% 29.91 in 10.0 mi North 13.8 mph - N/A Snow Light Snow
7:35 PM 6.8 °F -6.9 °F 1.4 °F 79% 29.95 in 10.0 mi NNW 9.2 mph - N/A   Mostly Cloudy
7:55 PM 6.8 °F -8.6 °F -0.4 °F 72% 29.95 in 10.0 mi NNW 11.5 mph 17.3 mph N/A   Mostly Cloudy
8:15 PM 5.0 °F -13.0 °F -0.4 °F 78% 29.95 in 10.0 mi North 15.0 mph - N/A   Partly Cloudy
8:35 PM 5.0 °F -12.3 °F -0.4 °F 78% 29.95 in 10.0 mi North 13.8 mph - N/A   Unknown
8:55 PM 5.0 °F -13.6 °F -0.4 °F 78% 29.97 in 10.0 mi North 16.1 mph - N/A   Scattered Clouds
9:15 PM 3.2 °F -13.1 °F -2.2 °F 78% 29.97 in 10.0 mi North 11.5 mph - N/A   Mostly Cloudy
9:35 PM 1.4 °F -13.5 °F -2.2 °F 85% 29.99 in 10.0 mi North 9.2 mph - N/A   Mostly Cloudy
9:55 PM 1.4 °F -11.3 °F -2.2 °F 85% 30.00 in 10.0 mi North 6.9 mph - N/A   Overcast
10:15 PM 1.4 °F -11.3 °F -2.2 °F 85% 30.03 in 10.0 mi NW 6.9 mph - N/A   Overcast
10:35 PM 1.4 °F -13.5 °F -2.2 °F 85% 30.03 in 10.0 mi North 9.2 mph - N/A   Overcast
10:55 PM 1.4 °F -15.3 °F -2.2 °F 85% 30.03 in 10.0 mi North 11.5 mph - N/A   Overcast
11:15 PM 1.4 °F -12.5 °F -2.2 °F 85% 30.04 in 10.0 mi North 8.1 mph - N/A   Overcast
11:35 PM 1.4 °F -13.5 °F -2.2 °F 85% 30.05 in 10.0 mi North 9.2 mph - N/A   Overcast
11:55 PM 1.4 °F -13.5 °F -2.2 °F 85% 30.05 in 10.0 mi North 9.2 mph - N/A   Overcast